Location: Gungolding
(48.9246°N, 11.3502°E)
Time: 02:11:38
(UTC+02:00)

Explorer 7 - All Passes

Search period start: 10 April 2020 00:00
Search period end: 20 April 2020 00:00
Orbit: 485 x 679 km, 50.3° (Epoch: 09 April)

Date Brightness Start Highest point End Pass type
(mag) Time Alt. Az. Time Alt. Az. Time Alt. Az.
10 Apr - 00:40:41 10° WNW 00:44:58 47° SSW 00:49:30 10° SE visible
10 Apr - 02:22:35 10° WSW 02:24:51 13° SW 02:27:08 10° SSW night (unlit)
10 Apr - 18:06:02 10° S 18:08:19 15° SE 18:10:40 10° E daylight
10 Apr - 19:44:11 10° SW 19:48:07 57° SSE 19:52:20 10° ENE daylight
10 Apr - 21:24:30 10° W 21:28:39 74° N 21:33:06 10° E visible
10 Apr - 23:05:02 10° WNW 23:09:22 89° SSW 23:13:59 10° ESE visible
11 Apr - 00:45:39 10° W 00:49:43 35° SSW 00:53:59 10° SSE visible
11 Apr - 18:09:50 10° SSW 18:12:55 22° SE 18:16:07 10° E daylight
11 Apr - 19:48:56 10° WSW 19:52:56 75° SSE 19:57:13 10° ENE daylight
11 Apr - 21:29:25 10° W 21:33:34 72° N 21:38:02 10° E visible
11 Apr - 23:09:55 10° WNW 23:14:14 74° SSW 23:18:49 10° ESE visible
12 Apr - 00:50:45 10° W 00:54:25 25° SW 00:58:13 10° SSE visible
12 Apr - 18:14:04 10° SSW 18:17:34 32° SE 18:21:15 10° E daylight
12 Apr - 19:53:46 10° WSW 19:57:48 89° NNW 20:02:06 10° ENE daylight
12 Apr - 21:34:19 10° W 21:38:30 75° N 21:42:57 10° E visible
12 Apr - 23:14:48 10° WNW 23:19:03 57° SSW 23:23:34 10° SE visible
13 Apr - 00:56:07 10° W 00:59:02 17° SW 01:02:04 10° S visible
13 Apr - 16:41:57 10° SE 16:42:39 10° SE 16:43:21 10° ESE daylight
13 Apr - 18:18:33 10° SW 18:22:17 45° SSE 18:26:14 10° ENE daylight
13 Apr - 19:58:40 10° W 20:02:41 78° N 20:07:00 10° ENE daylight
13 Apr - 21:39:12 10° WNW 21:43:24 83° NNE 21:47:52 10° E visible
13 Apr - 23:19:43 10° W 23:23:50 42° SSW 23:28:09 10° SE visible
14 Apr - 01:02:15 10° WSW 01:03:37 11° SW 01:05:00 10° SSW visible
14 Apr - 16:44:45 10° S 16:47:12 16° SE 16:49:43 10° E daylight
14 Apr - 18:23:12 10° WSW 18:27:04 62° SSE 18:31:09 10° ENE daylight
14 Apr - 20:03:34 10° W 20:07:36 73° N 20:11:54 10° E daylight
14 Apr - 21:44:05 10° WNW 21:48:16 84° SSW 21:52:45 10° ESE visible
14 Apr - 23:24:44 10° W 23:28:33 30° SW 23:32:34 10° SSE visible
15 Apr - 16:48:41 10° SSW 16:51:48 24° SE 16:55:03 10° E daylight
15 Apr - 18:27:59 10° WSW 18:31:54 80° SSE 18:36:02 10° ENE daylight
15 Apr - 20:08:29 10° W 20:12:31 72° N 20:16:50 10° E daylight
15 Apr - 21:48:57 10° WNW 21:53:07 68° SSW 21:57:33 10° ESE visible
15 Apr - 23:29:54 10° W 23:33:13 21° SW 23:36:41 10° S visible
16 Apr - 16:52:59 10° SSW 16:56:29 35° SSE 17:00:08 10° E daylight
16 Apr - 18:32:50 10° WSW 18:36:45 85° N 18:40:55 10° ENE daylight
16 Apr - 20:13:22 10° W 20:17:26 76° N 20:21:45 10° E daylight
16 Apr - 21:53:51 10° WNW 21:57:55 51° SSW 22:02:15 10° SE visible
16 Apr - 23:35:26 10° WSW 23:37:50 15° SW 23:40:19 10° S visible
17 Apr - 15:20:08 10° SSE 15:21:31 12° SE 15:22:53 10° ESE daylight
17 Apr - 16:57:31 10° SW 17:01:13 49° SSE 17:05:05 10° ENE daylight
17 Apr - 18:37:43 10° W 18:41:38 75° N 18:45:48 10° E daylight
17 Apr - 20:18:15 10° WNW 20:22:19 86° N 20:26:39 10° ESE daylight
17 Apr - 21:58:47 10° W 22:02:40 37° SSW 22:06:47 10° SE visible
18 Apr - 15:23:28 10° S 15:26:04 18° SE 15:28:45 10° E daylight
18 Apr - 17:02:13 10° WSW 17:06:00 67° SSE 17:09:59 10° ENE daylight
18 Apr - 18:42:37 10° W 18:46:33 71° N 18:50:43 10° E daylight
18 Apr - 20:23:07 10° WNW 20:27:11 79° SSW 20:31:30 10° ESE daylight
18 Apr - 22:03:50 10° W 22:07:23 26° SW 22:11:05 10° SSE visible
19 Apr - 15:27:31 10° SSW 15:30:42 26° SE 15:34:00 10° E daylight
19 Apr - 17:07:00 10° WSW 17:10:50 85° SSE 17:14:52 10° ENE daylight
19 Apr - 18:47:31 10° W 18:51:27 72° N 18:55:38 10° E daylight
19 Apr - 20:27:59 10° WNW 20:32:00 62° SSW 20:36:16 10° ESE daylight
19 Apr - 22:09:06 10° W 22:12:02 18° SW 22:15:04 10° S visible
